contact: severine.martini@mio.osupytheas.fr, dominique.lefevre@mio.osupytheas.fr
Project:EMSO Ligure-ouest http://www.emso-fr.org/EMSO-France
Sensor Aquadopp, Serial 05974 
DOI : "https://doi.org/10.17882/97948" 
Title:EMSO Western Ligurian : Data Bathybot Aquadopp sensor - deploiement 2023-04-28
Datetime,Profondeur,Latitude,Longitude,X_East,Y_North,Z_up,Amplitude_X,Amplitude_Y,Amplitude_Z,Batterie,Sound_Speed,Heading,Pitch,Roll,Pressure,Temperature,Fluorescence,Speed,Direction
time,m,degree_north,degree_east,m.s-1,m.s-1,m.s-1,1,1,1,Volt,m.s-1,degree,degree,degree,dbar,degree_C,arbitrary units (a.u.),m.s-1,degree
2023-11-06T00:03:13,2420,42.8014,5.9826,0.851,0.025,3.526,155.0,152.0,152.0,11.8,1504.7,271.3,-0.8,0.9,2485.703,13.28,3162.0,0.851,88.3
2023-11-06T00:06:13,2420,42.8014,5.9826,0.652,0.04,3.716,155.0,152.0,152.0,11.8,1504.7,271.4,-0.8,0.9,2485.45,13.28,2809.0,0.653,86.5
2023-11-06T00:09:13,2420,42.8014,5.9826,0.801,0.045,3.54,155.0,151.0,152.0,11.8,1504.7,271.2,-0.9,0.9,2485.637,13.28,2960.0,0.802,86.8
2023-11-06T00:12:13,2420,42.8014,5.9826,0.874,0.034,3.45,155.0,151.0,152.0,11.8,1504.7,271.4,-0.8,0.9,2485.354,13.28,2903.0,0.875,87.8
2023-11-06T00:15:13,2420,42.8014,5.9826,0.71,0.042,3.658,156.0,152.0,153.0,11.8,1504.7,271.3,-0.9,0.9,2485.237,13.28,3005.0,0.711,86.6
2023-11-06T00:18:13,2420,42.8014,5.9826,0.804,0.164,3.315,156.0,152.0,153.0,11.8,1504.7,271.4,-0.8,0.9,2485.251,13.28,3355.0,0.821,78.5
2023-11-06T00:21:13,2420,42.8014,5.9826,0.568,0.265,3.386,155.0,152.0,153.0,11.8,1504.7,271.4,-0.8,0.9,2485.681,13.28,2836.0,0.627,65.0
2023-11-06T00:24:13,2420,42.8014,5.9826,0.997,0.012,3.335,155.0,151.0,152.0,11.8,1504.7,271.3,-0.8,0.9,2485.434,13.28,3000.0,0.997,89.3
2023-11-06T00:27:13,2420,42.8014,5.9826,0.614,0.052,3.787,155.0,152.0,153.0,11.7,1504.7,271.3,-0.9,0.9,2485.558,13.28,2414.0,0.616,85.2
2023-11-06T00:30:13,2420,42.8014,5.9826,0.146,0.272,2.897,155.0,151.0,152.0,11.8,1504.7,271.3,-0.9,0.9,2485.494,13.28,2397.0,0.309,28.2
2023-11-06T00:33:13,2420,42.8014,5.9826,0.604,0.063,3.767,155.0,152.0,152.0,11.8,1504.7,271.3,-0.8,0.9,2485.651,13.28,2487.0,0.607,84.0
2023-11-06T00:36:13,2420,42.8014,5.9826,0.563,0.285,3.368,155.0,152.0,153.0,11.8,1504.7,271.4,-0.8,0.9,2485.43,13.28,1837.0,0.631,63.1
2023-11-06T00:39:13,2420,42.8014,5.9826,0.835,0.035,3.541,155.0,151.0,152.0,11.8,1504.7,271.5,-0.8,0.8,2485.167,13.28,1677.0,0.836,87.6
2023-11-06T00:42:13,2420,42.8014,5.9826,0.828,0.031,3.525,156.0,152.0,153.0,11.8,1504.7,271.3,-0.8,0.9,2485.55,13.28,1721.0,0.829,87.9
2023-11-06T00:45:13,2420,42.8014,5.9826,0.603,-0.206,3.347,155.0,152.0,153.0,11.8,1504.7,271.3,-0.9,0.9,2486.016,13.28,1708.0,0.637,108.9
2023-11-06T00:48:13,2420,42.8014,5.9826,0.913,0.026,3.474,155.0,152.0,152.0,11.8,1504.7,271.4,-0.8,0.9,2485.231,13.28,1720.0,0.913,88.4
2023-11-06T00:51:13,2420,42.8014,5.9826,0.623,-0.208,3.303,156.0,152.0,153.0,11.8,1504.7,271.3,-0.8,0.9,2485.394,13.28,2010.0,0.657,108.5
2023-11-06T00:54:13,2420,42.8014,5.9826,0.487,0.053,2.951,156.0,152.0,153.0,11.8,1504.7,271.3,-0.9,0.9,2485.468,13.28,2300.0,0.49,83.8
2023-11-06T00:57:13,2420,42.8014,5.9826,0.568,0.287,3.325,156.0,152.0,153.0,11.8,1504.7,271.3,-0.9,0.9,2485.448,13.28,2261.0,0.636,63.2
2023-11-06T01:03:13,2420,42.8014,5.9826,0.796,0.045,3.584,156.0,152.0,153.0,11.8,1504.7,271.4,-0.8,0.9,2485.508,13.28,2282.0,0.797,86.8
2023-11-06T01:06:13,2420,42.8014,5.9826,0.641,0.281,3.343,155.0,152.0,153.0,11.8,1504.7,271.3,-0.8,0.9,2485.177,13.28,2195.0,0.7,66.3
2023-11-06T01:09:13,2420,42.8014,5.9826,0.873,0.271,3.059,156.0,152.0,153.0,11.8,1504.7,271.3,-0.8,0.9,2485.338,13.28,2334.0,0.914,72.8
2023-11-06T01:12:13,2420,42.8014,5.9826,0.789,0.057,3.599,155.0,152.0,153.0,11.8,1504.7,271.3,-0.8,0.9,2485.416,13.28,2479.0,0.791,85.9
2023-11-06T01:15:13,2420,42.8014,5.9826,0.575,0.291,3.373,155.0,152.0,153.0,11.8,1504.7,271.3,-0.9,0.9,2485.328,13.28,778.0,0.644,63.2
2023-11-06T01:18:13,2420,42.8014,5.9826,0.766,0.046,3.602,156.0,152.0,153.0,11.8,1504.7,271.3,-0.8,0.9,2485.324,13.28,771.0,0.767,86.6
2023-11-06T01:21:13,2420,42.8014,5.9826,0.256,0.779,2.826,155.0,152.0,153.0,11.8,1504.7,271.4,-0.8,0.9,2485.087,13.28,766.0,0.82,18.2
2023-11-06T01:24:13,2420,42.8014,5.9826,0.912,0.292,2.991,156.0,152.0,153.0,11.7,1504.7,271.3,-0.8,0.9,2485.328,13.28,773.0,0.958,72.3
2023-11-06T01:27:13,2420,42.8014,5.9826,0.661,0.032,3.685,155.0,152.0,153.0,11.8,1504.7,271.3,-0.8,0.9,2485.342,13.28,767.0,0.662,87.2
2023-11-06T01:30:13,2420,42.8014,5.9826,0.641,0.288,3.321,155.0,152.0,153.0,11.8,1504.7,271.3,-0.8,0.9,2485.277,13.28,765.0,0.703,65.8
2023-11-06T01:33:13,2420,42.8014,5.9826,0.609,-0.22,3.367,155.0,152.0,153.0,11.8,1504.7,271.3,-0.8,0.9,2485.577,13.28,771.0,0.647,109.9
2023-11-06T01:36:13,2420,42.8014,5.9826,0.87,0.041,3.549,155.0,152.0,153.0,11.8,1504.7,271.5,-0.8,0.9,2485.199,13.28,767.0,0.871,87.3
2023-11-06T01:39:13,2420,42.8014,5.9826,0.584,0.284,3.357,155.0,152.0,153.0,11.8,1504.7,271.4,-0.8,0.9,2485.135,13.28,772.0,0.649,64.1
2023-11-06T01:42:13,2420,42.8014,5.9826,0.302,-0.221,2.769,155.0,152.0,153.0,11.8,1504.7,271.4,-0.8,0.8,2485.52,13.29,759.0,0.374,126.2
2023-11-06T01:45:13,2420,42.8014,5.9826,0.48,0.529,3.055,156.0,152.0,153.0,11.8,1504.7,271.4,-0.8,0.9,2485.575,13.29,779.0,0.714,42.2
2023-11-06T01:48:13,2420,42.8014,5.9826,0.555,-0.202,3.42,155.0,152.0,153.0,11.8,1504.7,271.3,-0.8,0.9,2485.647,13.29,1157.0,0.591,110.0
2023-11-06T01:51:13,2420,42.8014,5.9826,0.877,0.274,3.058,155.0,152.0,152.0,11.8,1504.7,271.4,-0.8,0.9,2485.548,13.29,2324.0,0.919,72.7
2023-11-06T01:54:13,2420,42.8014,5.9826,0.477,0.533,3.048,155.0,151.0,152.0,11.8,1504.7,271.4,-0.8,0.9,2485.575,13.29,765.0,0.715,41.8
2023-11-06T01:57:13,2420,42.8014,5.9826,0.618,0.282,3.311,155.0,151.0,152.0,11.8,1504.7,271.4,-0.8,0.9,2485.275,13.29,775.0,0.679,65.5
2023-11-06T02:03:13,2420,42.8014,5.9826,0.012,-0.72,1.291,155.0,151.0,152.0,11.8,1504.7,271.3,-0.8,0.9,2485.591,13.29,773.0,0.72,179.0
2023-11-06T02:06:13,2420,42.8014,5.9826,0.304,0.292,2.735,155.0,151.0,152.0,11.8,1504.7,271.3,-0.8,0.9,2485.241,13.29,764.0,0.422,46.2
2023-11-06T02:09:13,2420,42.8014,5.9826,0.678,0.268,3.264,155.0,151.0,152.0,11.8,1504.7,271.3,-0.8,0.9,2485.556,13.29,766.0,0.729,68.4
2023-11-06T02:12:13,2420,42.8014,5.9826,0.84,0.04,3.532,155.0,151.0,152.0,11.8,1504.7,271.3,-0.8,0.9,2485.095,13.29,771.0,0.841,87.3
2023-11-06T02:15:13,2420,42.8014,5.9826,0.681,0.056,3.697,155.0,151.0,152.0,11.8,1504.7,271.4,-0.8,0.9,2485.53,13.29,764.0,0.683,85.3
2023-11-06T02:18:13,2420,42.8014,5.9826,0.108,0.038,2.51,155.0,151.0,152.0,11.8,1504.7,271.3,-0.9,0.9,2485.693,13.29,764.0,0.114,70.6
2023-11-06T02:21:13,2420,42.8014,5.9826,0.682,0.292,3.265,155.0,151.0,152.0,11.8,1504.7,271.3,-0.8,0.9,2485.56,13.29,780.0,0.742,66.8
2023-11-06T02:24:13,2420,42.8014,5.9826,0.583,0.272,3.328,155.0,151.0,152.0,11.7,1504.7,271.5,-0.8,0.9,2485.603,13.29,769.0,0.643,65.0
2023-11-06T02:27:13,2420,42.8014,5.9826,0.559,0.031,2.929,155.0,151.0,152.0,11.8,1504.7,271.3,-0.8,0.9,2485.599,13.29,773.0,0.56,86.8
2023-11-06T02:30:13,2420,42.8014,5.9826,0.552,0.023,2.95,155.0,151.0,152.0,11.8,1504.7,271.3,-0.8,0.9,2485.32,13.29,768.0,0.552,87.6
2023-11-06T02:33:13,2420,42.8014,5.9826,0.766,0.27,3.149,155.0,151.0,152.0,11.8,1504.7,271.3,-0.8,0.9,2485.388,13.29,768.0,0.812,70.6
2023-11-06T02:36:13,2420,42.8014,5.9826,0.504,-0.18,3.468,155.0,152.0,152.0,11.8,1504.7,271.3,-0.8,0.9,2485.378,13.29,772.0,0.535,109.6
2023-11-06T02:39:13,2420,42.8014,5.9826,0.898,0.048,3.421,155.0,151.0,152.0,11.8,1504.7,271.5,-0.8,0.9,2485.275,13.29,766.0,0.899,86.9
2023-11-06T02:42:13,2420,42.8014,5.9826,0.903,0.035,3.464,155.0,151.0,152.0,11.8,1504.7,271.4,-0.8,0.9,2485.356,13.29,763.0,0.904,87.8
2023-11-06T02:45:13,2420,42.8014,5.9826,0.563,0.28,3.353,155.0,151.0,152.0,11.8,1504.7,271.4,-0.8,0.9,2485.498,13.28,1268.0,0.629,63.6
2023-11-06T02:48:13,2420,42.8014,5.9826,0.747,0.038,3.611,155.0,152.0,153.0,11.8,1504.7,271.4,-0.8,0.9,2485.478,13.28,2939.0,0.748,87.1
2023-11-06T02:51:13,2420,42.8014,5.9826,0.694,0.047,3.693,155.0,152.0,153.0,11.8,1504.7,271.3,-0.8,0.9,2485.067,13.28,772.0,0.695,86.1
2023-11-06T02:54:13,2420,42.8014,5.9826,0.832,0.032,3.533,155.0,152.0,152.0,11.8,1504.7,271.4,-0.8,0.9,2485.673,13.28,773.0,0.833,87.8
2023-11-06T02:57:13,2420,42.8014,5.9826,0.9,0.042,3.456,155.0,151.0,152.0,11.8,1504.7,271.5,-0.8,0.9,2485.33,13.28,775.0,0.901,87.3
2023-11-06T03:03:13,2420,42.8014,5.9826,0.863,0.026,3.499,155.0,151.0,152.0,11.7,1504.7,271.3,-0.8,0.9,2485.34,13.28,766.0,0.863,88.3
2023-11-06T03:06:13,2420,42.8014,5.9826,0.736,-0.215,3.22,155.0,151.0,152.0,11.8,1504.7,271.3,-0.8,0.9,2485.621,13.28,772.0,0.767,106.3
2023-11-06T03:09:13,2420,42.8014,5.9826,0.785,0.056,3.578,155.0,151.0,152.0,11.8,1504.7,271.3,-0.8,0.9,2485.721,13.28,777.0,0.787,85.9
2023-11-06T03:12:13,2420,42.8014,5.9826,0.34,-0.72,2.698,155.0,151.0,152.0,11.7,1504.7,271.4,-0.8,0.9,2485.332,13.28,772.0,0.796,154.7
2023-11-06T03:15:13,2420,42.8014,5.9826,0.86,0.023,3.485,155.0,151.0,152.0,11.8,1504.7,271.3,-0.8,0.9,2485.771,13.28,787.0,0.86,88.5
2023-11-06T03:18:13,2420,42.8014,5.9826,0.773,0.05,3.635,155.0,152.0,152.0,11.8,1504.7,271.3,-0.8,0.9,2485.388,13.28,808.0,0.775,86.3
2023-11-06T03:21:13,2420,42.8014,5.9826,0.162,0.048,2.502,155.0,152.0,153.0,11.8,1504.7,271.3,-0.8,0.9,2485.568,13.28,758.0,0.168,73.5
2023-11-06T03:24:13,2420,42.8014,5.9826,0.36,0.279,2.681,155.0,152.0,152.0,11.8,1504.7,271.4,-0.8,0.9,2485.478,13.28,766.0,0.455,52.2
2023-11-06T03:27:13,2420,42.8014,5.9826,0.801,0.044,3.574,155.0,152.0,152.0,11.8,1504.7,271.3,-0.8,0.9,2485.689,13.28,772.0,0.802,86.9
2023-11-06T03:30:13,2420,42.8014,5.9826,0.783,-0.198,3.14,155.0,152.0,152.0,11.8,1504.7,271.4,-0.8,0.9,2485.135,13.28,775.0,0.808,104.2
2023-11-06T03:33:13,2420,42.8014,5.9826,0.704,0.055,3.671,155.0,152.0,152.0,11.8,1504.7,271.4,-0.8,0.9,2485.426,13.28,763.0,0.706,85.5
2023-11-06T03:36:13,2420,42.8014,5.9826,0.668,-0.215,3.194,154.0,151.0,152.0,11.8,1504.7,271.3,-0.8,0.9,2485.147,13.28,763.0,0.702,107.8
2023-11-06T03:39:13,2420,42.8014,5.9826,0.555,-0.198,3.307,155.0,152.0,153.0,11.8,1504.7,271.4,-0.8,0.9,2485.233,13.28,771.0,0.589,109.6
2023-11-06T03:42:13,2420,42.8014,5.9826,0.528,-0.201,3.385,155.0,152.0,153.0,11.8,1504.7,271.4,-0.8,0.9,2485.424,13.28,764.0,0.565,110.8
2023-11-06T03:45:13,2420,42.8014,5.9826,0.476,-0.198,3.437,155.0,151.0,152.0,11.8,1504.7,271.4,-0.8,0.9,2485.173,13.28,767.0,0.515,112.6
2023-11-06T03:48:13,2420,42.8014,5.9826,0.554,0.299,3.341,155.0,151.0,153.0,11.8,1504.7,271.3,-0.8,0.9,2485.552,13.28,768.0,0.629,61.6
2023-11-06T03:51:13,2420,42.8014,5.9826,0.68,0.023,3.683,155.0,152.0,153.0,11.8,1504.7,271.5,-0.8,0.9,2485.568,13.28,1408.0,0.68,88.1
2023-11-06T03:54:13,2420,42.8014,5.9826,0.489,0.285,3.414,155.0,152.0,152.0,11.8,1504.7,271.4,-0.8,0.9,2485.326,13.28,771.0,0.566,59.8
2023-11-06T03:57:13,2420,42.8014,5.9826,0.548,0.027,3.838,155.0,151.0,152.0,11.8,1504.7,271.4,-0.8,0.9,2485.279,13.28,777.0,0.549,87.2
2023-11-06T04:03:13,2420,42.8014,5.9826,0.817,0.039,3.533,155.0,152.0,152.0,11.8,1504.7,271.4,-0.8,0.9,2485.55,13.28,766.0,0.818,87.3
2023-11-06T04:06:13,2420,42.8014,5.9826,0.521,-0.221,3.404,155.0,152.0,152.0,11.8,1504.7,271.5,-0.8,0.9,2485.406,13.28,758.0,0.566,113.0
2023-11-06T04:09:13,2420,42.8014,5.9826,0.691,0.037,3.697,155.0,152.0,152.0,11.8,1504.7,271.3,-0.8,0.9,2484.998,13.28,768.0,0.692,86.9
2023-11-06T04:12:13,2420,42.8014,5.9826,0.482,0.287,3.441,155.0,152.0,152.0,11.8,1504.7,271.4,-0.8,0.8,2485.458,13.28,766.0,0.561,59.2
2023-11-06T04:15:13,2420,42.8014,5.9826,0.637,0.044,3.741,155.0,152.0,152.0,11.8,1504.7,271.4,-0.8,0.9,2485.669,13.28,773.0,0.638,86.1
2023-11-06T04:18:13,2420,42.8014,5.9826,0.556,-0.198,3.363,155.0,152.0,152.0,11.8,1504.7,271.3,-0.8,0.9,2485.508,13.28,772.0,0.59,109.6
2023-11-06T04:21:13,2420,42.8014,5.9826,0.551,-0.094,3.539,155.0,152.0,152.0,11.8,1504.7,271.4,-0.8,0.9,2485.492,13.28,1094.0,0.559,99.7
2023-11-06T04:24:13,2420,42.8014,5.9826,0.414,-0.186,3.492,155.0,152.0,152.0,11.8,1504.7,271.3,-0.8,0.9,2485.402,13.28,775.0,0.454,114.2
2023-11-06T04:27:13,2420,42.8014,5.9826,0.613,0.07,3.729,155.0,152.0,152.0,11.8,1504.7,271.4,-0.9,0.9,2485.591,13.28,788.0,0.617,83.5
2023-11-06T04:30:13,2420,42.8014,5.9826,0.508,0.033,3.816,155.0,152.0,153.0,11.8,1504.7,271.5,-0.8,0.9,2485.269,13.28,763.0,0.509,86.3
2023-11-06T04:33:13,2420,42.8014,5.9826,0.571,0.054,3.841,155.0,152.0,153.0,11.8,1504.7,271.4,-0.8,0.9,2485.239,13.28,767.0,0.573,84.6
2023-11-06T04:36:13,2420,42.8014,5.9826,0.527,0.305,3.418,155.0,152.0,152.0,11.8,1504.7,271.3,-0.8,0.9,2485.432,13.28,769.0,0.609,59.9
2023-11-06T04:39:13,2420,42.8014,5.9826,0.539,0.291,3.362,155.0,152.0,152.0,11.8,1504.7,271.3,-0.9,0.9,2485.546,13.28,755.0,0.612,61.6
2023-11-06T04:42:13,2420,42.8014,5.9826,0.52,0.279,3.406,155.0,152.0,152.0,11.8,1504.7,271.4,-0.8,0.9,2485.593,13.28,971.0,0.59,61.8
2023-11-06T04:45:13,2420,42.8014,5.9826,0.695,0.135,3.42,155.0,152.0,153.0,11.8,1504.7,271.4,-0.8,0.9,2485.362,13.28,779.0,0.708,79.0
2023-11-06T04:48:13,2420,42.8014,5.9826,0.501,0.284,3.405,155.0,152.0,152.0,11.8,1504.7,271.3,-0.8,0.9,2485.701,13.28,767.0,0.576,60.5
2023-11-06T04:51:13,2420,42.8014,5.9826,0.54,0.022,3.79,155.0,152.0,152.0,11.7,1504.7,271.3,-0.8,0.9,2485.593,13.28,773.0,0.54,87.7
2023-11-06T04:54:13,2420,42.8014,5.9826,0.601,0.281,3.26,155.0,151.0,152.0,11.8,1504.7,271.4,-0.8,0.9,2485.37,13.28,765.0,0.663,64.9
2023-11-06T04:57:13,2420,42.8014,5.9826,0.669,0.284,3.238,155.0,151.0,152.0,11.7,1504.7,271.5,-0.8,0.9,2485.324,13.28,777.0,0.727,67.0
2023-11-06T05:03:13,2420,42.8014,5.9826,0.513,-0.198,3.349,155.0,151.0,152.0,11.8,1504.7,271.4,-0.8,0.8,2485.52,13.28,772.0,0.55,111.1
2023-11-06T05:06:13,2420,42.8014,5.9826,0.538,-0.2,3.37,156.0,152.0,153.0,11.8,1504.7,271.3,-0.8,0.9,2485.864,13.28,755.0,0.574,110.4
2023-11-06T05:09:13,2420,42.8014,5.9826,0.501,0.038,3.819,155.0,152.0,153.0,11.8,1504.7,271.4,-0.8,0.9,2485.807,13.28,766.0,0.502,85.7
2023-11-06T05:12:13,2420,42.8014,5.9826,0.542,0.165,3.491,155.0,152.0,153.0,11.8,1504.7,271.3,-0.8,0.9,2485.416,13.28,1461.0,0.566,73.1
2023-11-06T05:15:13,2420,42.8014,5.9826,0.552,0.04,3.796,155.0,152.0,152.0,11.8,1504.7,271.4,-0.8,0.8,2485.659,13.28,773.0,0.553,85.9
2023-11-06T05:18:13,2420,42.8014,5.9826,0.713,0.039,3.618,155.0,152.0,153.0,11.8,1504.7,271.5,-0.8,0.9,2485.767,13.28,773.0,0.714,86.9
2023-11-06T05:21:13,2420,42.8014,5.9826,0.473,0.047,3.828,155.0,152.0,152.0,11.8,1504.7,271.3,-0.9,0.8,2484.828,13.28,779.0,0.475,84.3
2023-11-06T05:24:13,2420,42.8014,5.9826,0.396,0.65,2.833,155.0,151.0,153.0,11.8,1504.7,271.4,-0.8,0.9,2485.564,13.28,1706.0,0.761,31.4
2023-11-06T05:27:13,2420,42.8014,5.9826,0.358,-0.189,3.566,155.0,152.0,153.0,11.8,1504.7,271.4,-0.8,0.9,2485.322,13.28,828.0,0.405,117.8
2023-11-06T05:30:13,2420,42.8014,5.9826,0.45,0.057,3.884,155.0,151.0,152.0,11.8,1504.7,271.4,-0.8,0.9,2485.33,13.28,774.0,0.454,82.8
2023-11-06T05:33:13,2420,42.8014,5.9826,0.636,0.046,3.685,155.0,151.0,152.0,11.8,1504.7,271.2,-0.8,0.9,2485.589,13.28,859.0,0.638,85.9
2023-11-06T05:36:13,2420,42.8014,5.9826,0.468,0.286,3.427,155.0,151.0,152.0,11.8,1504.7,271.3,-0.8,0.9,2485.179,13.28,758.0,0.548,58.6
2023-11-06T05:39:13,2420,42.8014,5.9826,0.584,0.042,3.752,155.0,151.0,152.0,11.8,1504.7,271.3,-0.8,0.9,2485.285,13.28,761.0,0.585,85.9
2023-11-06T05:42:13,2420,42.8014,5.9826,0.543,0.062,3.793,155.0,151.0,152.0,11.8,1504.7,271.4,-0.8,0.9,2485.336,13.28,768.0,0.546,83.5
2023-11-06T05:45:13,2420,42.8014,5.9826,0.412,0.045,3.011,155.0,151.0,152.0,11.7,1504.7,271.4,-0.8,0.9,2485.484,13.28,1330.0,0.414,83.8
2023-11-06T05:48:13,2420,42.8014,5.9826,0.86,0.044,3.484,155.0,151.0,152.0,11.8,1504.7,271.5,-0.8,0.9,2485.432,13.28,766.0,0.861,87.1
2023-11-06T05:51:13,2420,42.8014,5.9826,0.786,0.033,3.548,155.0,151.0,152.0,11.8,1504.7,271.5,-0.8,0.9,2485.458,13.28,768.0,0.787,87.6
2023-11-06T05:54:13,2420,42.8014,5.9826,0.36,0.393,3.298,155.0,151.0,152.0,11.8,1504.7,271.4,-0.9,0.9,2485.036,13.28,766.0,0.533,42.5
2023-11-06T05:57:13,2420,42.8014,5.9826,0.534,0.28,3.356,155.0,151.0,152.0,11.8,1504.7,271.5,-0.8,0.9,2485.482,13.28,761.0,0.603,62.3
2023-11-06T06:03:14,2420,42.8014,5.9826,0.515,0.046,3.843,155.0,151.0,152.0,11.8,1504.7,271.3,-0.8,0.9,2485.163,13.28,776.0,0.517,84.9
2023-11-06T06:06:13,2420,42.8014,5.9826,0.842,0.024,3.556,155.0,151.0,152.0,11.8,1504.7,271.3,-0.9,0.9,2485.37,13.28,771.0,0.842,88.4
2023-11-06T06:09:13,2420,42.8014,5.9826,0.617,0.054,3.696,155.0,151.0,152.0,11.8,1504.7,271.4,-0.8,0.9,2485.745,13.28,773.0,0.619,85.0
2023-11-06T06:12:13,2420,42.8014,5.9826,0.519,-0.205,3.393,155.0,151.0,152.0,11.8,1504.7,271.4,-0.8,0.9,2485.575,13.28,764.0,0.558,111.5
2023-11-06T06:15:13,2420,42.8014,5.9826,0.591,0.054,3.756,155.0,152.0,153.0,11.8,1504.7,271.4,-0.8,0.9,2485.643,13.28,775.0,0.593,84.8
2023-11-06T06:18:13,2420,42.8014,5.9826,0.541,0.286,3.406,155.0,151.0,152.0,11.8,1504.7,271.4,-0.8,0.9,2485.091,13.28,772.0,0.612,62.1
2023-11-06T06:21:13,2420,42.8014,5.9826,0.342,-0.184,3.569,155.0,151.0,152.0,11.8,1504.7,271.4,-0.8,0.9,2485.436,13.28,772.0,0.388,118.3
2023-11-06T06:24:13,2420,42.8014,5.9826,0.762,0.055,3.614,155.0,151.0,152.0,11.8,1504.7,271.3,-0.9,0.9,2485.48,13.28,764.0,0.764,85.9
2023-11-06T06:27:13,2420,42.8014,5.9826,0.721,0.04,3.621,155.0,151.0,152.0,11.8,1504.7,271.5,-0.8,0.9,2485.446,13.28,775.0,0.722,86.8
2023-11-06T06:30:13,2420,42.8014,5.9826,0.76,0.038,3.599,155.0,151.0,152.0,11.8,1504.7,271.3,-0.8,0.9,2485.54,13.28,779.0,0.761,87.1
2023-11-06T06:33:13,2420,42.8014,5.9826,0.705,0.077,3.558,155.0,151.0,152.0,11.8,1504.7,271.4,-0.8,0.9,2485.334,13.28,767.0,0.709,83.8
2023-11-06T06:36:13,2420,42.8014,5.9826,0.708,0.021,3.635,155.0,151.0,152.0,11.8,1504.7,271.4,-0.9,0.9,2485.747,13.28,761.0,0.708,88.3
2023-11-06T06:39:13,2420,42.8014,5.9826,0.396,-0.19,3.546,155.0,151.0,152.0,11.8,1504.7,271.3,-0.9,0.9,2485.474,13.28,761.0,0.439,115.6
2023-11-06T06:42:13,2420,42.8014,5.9826,0.622,0.043,3.711,155.0,151.0,152.0,11.8,1504.7,271.4,-0.8,0.9,2485.332,13.28,774.0,0.623,86.0
2023-11-06T06:45:13,2420,42.8014,5.9826,0.662,0.155,3.484,155.0,151.0,153.0,11.8,1504.7,271.4,-0.8,0.9,2485.743,13.28,773.0,0.68,76.8
2023-11-06T06:48:13,2420,42.8014,5.9826,0.695,0.078,3.61,155.0,151.0,152.0,11.8,1504.7,271.3,-0.8,0.9,2485.42,13.28,777.0,0.699,83.6
2023-11-06T06:51:13,2420,42.8014,5.9826,0.645,0.035,3.7,155.0,151.0,152.0,11.8,1504.7,271.3,-0.8,0.8,2485.115,13.28,767.0,0.646,86.9
2023-11-06T06:54:13,2420,42.8014,5.9826,0.633,0.501,2.863,155.0,151.0,152.0,11.8,1504.7,271.5,-0.8,0.8,2485.805,13.28,765.0,0.807,51.6
2023-11-06T06:57:14,2420,42.8014,5.9826,0.621,0.021,3.682,155.0,151.0,152.0,11.8,1504.7,271.3,-0.8,0.9,2485.406,13.28,777.0,0.621,88.1
2023-11-06T07:03:13,2420,42.8014,5.9826,0.593,-0.212,3.297,155.0,151.0,152.0,11.8,1504.7,271.5,-0.8,0.9,2485.512,13.28,765.0,0.63,109.7
2023-11-06T07:06:13,2420,42.8014,5.9826,0.731,0.047,3.639,155.0,151.0,152.0,11.8,1504.7,271.4,-0.8,0.9,2485.649,13.28,758.0,0.733,86.3
2023-11-06T07:09:13,2420,42.8014,5.9826,0.673,0.061,3.668,155.0,151.0,152.0,11.7,1504.7,271.3,-0.8,0.9,2485.631,13.28,759.0,0.676,84.8
2023-11-06T07:12:13,2420,42.8014,5.9826,0.521,0.275,3.361,155.0,151.0,152.0,11.8,1504.7,271.4,-0.8,0.9,2485.575,13.28,766.0,0.589,62.2
2023-11-06T07:15:13,2420,42.8014,5.9826,0.692,0.037,3.686,155.0,151.0,152.0,11.8,1504.7,271.3,-0.8,0.9,2485.601,13.28,775.0,0.693,86.9
2023-11-06T07:18:13,2420,42.8014,5.9826,0.43,0.293,3.487,155.0,151.0,152.0,11.8,1504.7,271.3,-0.8,0.9,2485.167,13.28,773.0,0.52,55.7
2023-11-06T07:21:13,2420,42.8014,5.9826,0.594,0.269,3.284,155.0,151.0,152.0,11.7,1504.7,271.4,-0.8,0.9,2485.5,13.28,764.0,0.652,65.6
2023-11-06T07:24:13,2420,42.8014,5.9826,0.536,0.062,3.772,155.0,152.0,152.0,11.8,1504.7,271.5,-0.8,0.9,2485.631,13.28,765.0,0.54,83.4
2023-11-06T07:27:13,2420,42.8014,5.9826,0.513,-0.196,3.423,155.0,151.0,152.0,11.8,1504.7,271.4,-0.8,0.9,2485.739,13.28,767.0,0.549,110.9
2023-11-06T07:30:14,2420,42.8014,5.9826,0.524,0.288,3.391,155.0,151.0,152.0,11.7,1504.7,271.3,-0.8,0.9,2485.536,13.28,762.0,0.598,61.2
2023-11-06T07:33:13,2420,42.8014,5.9826,0.6,0.036,3.72,155.0,151.0,152.0,11.8,1504.7,271.3,-0.8,0.9,2485.675,13.28,781.0,0.601,86.6
2023-11-06T07:36:13,2420,42.8014,5.9826,0.769,0.034,3.594,155.0,151.0,152.0,11.8,1504.7,271.4,-0.8,0.8,2485.372,13.28,780.0,0.77,87.5
2023-11-06T07:39:13,2420,42.8014,5.9826,0.392,-0.077,3.267,155.0,151.0,152.0,11.8,1504.7,271.3,-0.8,0.9,2485.422,13.28,777.0,0.399,101.1
2023-11-06T07:42:13,2420,42.8014,5.9826,0.697,0.05,3.649,155.0,151.0,152.0,11.8,1504.7,271.3,-0.8,0.9,2485.655,13.28,830.0,0.699,85.9
2023-11-06T07:45:13,2420,42.8014,5.9826,0.728,0.042,3.589,155.0,151.0,152.0,11.8,1504.7,271.4,-0.8,0.9,2485.384,13.28,776.0,0.729,86.7
2023-11-06T07:48:13,2420,42.8014,5.9826,0.379,-0.163,3.541,155.0,151.0,152.0,11.7,1504.7,271.3,-0.8,0.9,2485.466,13.28,776.0,0.413,113.3
2023-11-06T07:51:13,2420,42.8014,5.9826,0.335,0.296,3.522,155.0,151.0,152.0,11.8,1504.7,271.3,-0.8,0.9,2485.591,13.28,779.0,0.447,48.5
2023-11-06T07:54:13,2420,42.8014,5.9826,0.627,0.066,3.671,155.0,151.0,152.0,11.8,1504.7,271.3,-0.8,0.9,2485.564,13.28,779.0,0.63,84.0
2023-11-06T07:57:13,2420,42.8014,5.9826,0.586,0.039,3.739,155.0,151.0,152.0,11.8,1504.7,271.5,-0.8,0.9,2485.575,13.28,775.0,0.587,86.2
2023-11-06T08:03:13,2420,42.8014,5.9826,0.455,0.028,3.827,155.0,151.0,152.0,11.8,1504.7,271.5,-0.8,0.9,2485.699,13.28,759.0,0.456,86.5
2023-11-06T08:06:13,2420,42.8014,5.9826,0.55,0.042,3.796,155.0,151.0,152.0,11.8,1504.7,271.3,-0.8,0.9,2485.432,13.28,766.0,0.552,85.6
2023-11-06T08:09:13,2420,42.8014,5.9826,0.635,0.062,3.699,155.0,151.0,152.0,11.8,1504.7,271.3,-0.9,0.9,2485.217,13.28,780.0,0.638,84.4
2023-11-06T08:12:13,2420,42.8014,5.9826,0.639,0.045,3.674,155.0,151.0,152.0,11.8,1504.7,271.4,-0.8,0.9,2485.091,13.28,801.0,0.64,86.0
2023-11-06T08:15:13,2420,42.8014,5.9826,0.778,0.053,3.557,155.0,151.0,152.0,11.8,1504.7,271.4,-0.8,0.9,2485.159,13.28,768.0,0.78,86.1
2023-11-06T08:18:13,2420,42.8014,5.9826,0.618,0.029,3.683,155.0,151.0,152.0,11.8,1504.7,271.3,-0.8,0.9,2485.48,13.28,759.0,0.619,87.3
2023-11-06T08:21:13,2420,42.8014,5.9826,0.711,0.039,3.606,155.0,151.0,152.0,11.8,1504.7,271.4,-0.9,0.8,2485.199,13.28,1124.0,0.712,86.9
2023-11-06T08:24:13,2420,42.8014,5.9826,0.598,-0.199,3.253,155.0,151.0,152.0,11.8,1504.7,271.4,-0.8,0.9,2485.231,13.28,778.0,0.63,108.4
2023-11-06T08:27:13,2420,42.8014,5.9826,0.549,0.049,3.789,155.0,151.0,152.0,11.8,1504.7,271.4,-0.8,0.9,2485.36,13.28,758.0,0.551,84.9
2023-11-06T08:30:14,2420,42.8014,5.9826,0.648,-0.005,3.647,155.0,151.0,152.0,11.8,1504.7,271.3,-0.8,0.9,2485.484,13.28,768.0,0.648,90.4
2023-11-06T08:33:13,2420,42.8014,5.9826,0.649,0.034,3.677,155.0,151.0,152.0,11.8,1504.7,271.4,-0.8,0.9,2485.398,13.28,765.0,0.65,87.0
2023-11-06T08:36:13,2420,42.8014,5.9826,0.668,0.037,3.611,155.0,151.0,152.0,11.8,1504.7,271.4,-0.9,0.9,2485.476,13.28,768.0,0.669,86.8
2023-11-06T08:39:13,2420,42.8014,5.9826,0.663,0.034,3.664,155.0,151.0,152.0,11.8,1504.7,271.3,-0.8,0.9,2485.384,13.28,758.0,0.664,87.1
2023-11-06T08:42:13,2420,42.8014,5.9826,0.893,0.038,3.46,155.0,151.0,152.0,11.8,1504.7,271.3,-0.8,0.8,2485.316,13.28,776.0,0.894,87.6
2023-11-06T08:45:13,2420,42.8014,5.9826,0.488,-0.09,3.638,155.0,151.0,152.0,11.8,1504.7,271.4,-0.8,0.9,2485.671,13.28,776.0,0.496,100.4
2023-11-06T08:48:13,2420,42.8014,5.9826,0.727,0.037,3.661,155.0,151.0,152.0,11.8,1504.7,271.3,-0.8,0.9,2485.546,13.28,762.0,0.728,87.1
2023-11-06T08:51:13,2420,42.8014,5.9826,0.718,0.06,3.583,155.0,151.0,152.0,11.8,1504.7,271.4,-0.8,0.9,2485.572,13.28,768.0,0.72,85.2
2023-11-06T08:54:13,2420,42.8014,5.9826,0.646,0.279,3.237,155.0,151.0,154.0,11.8,1504.7,271.4,-0.8,0.9,2485.39,13.28,771.0,0.704,66.6
2023-11-06T08:57:13,2420,42.8014,5.9826,0.685,0.045,3.61,155.0,151.0,152.0,11.8,1504.7,271.3,-0.9,0.9,2485.836,13.28,762.0,0.686,86.2
2023-11-06T09:03:13,2420,42.8014,5.9826,0.54,0.055,3.77,155.0,152.0,152.0,11.8,1504.7,271.3,-0.8,0.9,2485.438,13.28,783.0,0.543,84.2
2023-11-06T09:06:13,2420,42.8014,5.9826,0.396,-0.055,3.731,155.0,151.0,152.0,11.8,1504.7,271.3,-0.9,0.9,2485.322,13.28,774.0,0.4,97.9